SVSA/SVZ METAR and TAF weather

Enter ICAO airport designator
Station Type Date Time Source
SVSA METAR 2019/05/15 21:00 UTC NOAA

SVSA 152100Z /////KT 9999 BKN020 33/// Q1008


Station Type Date Time Source
SVSA Decoded METAR 2019/05/15 21:00 UTC NOAA

San Antonio Del Tachira, Venezuela (SVSA) 07-51N 072-27W 378M
May 15, 2019 - 05:00 PM EDT / 2019.05.15 2100 UTC
Visibility: greater than 7 mile(s):0
Sky conditions: mostly cloudy
Temperature: 91 F (33 C)
Pressure (altimeter): 29.77 in. Hg (1008 hPa)
ob: SVSA 152100Z /////KT 9999 BKN020 33/// Q1008
cycle: 21

Station Type Date Time Source
SVSA TAF 2019/08/26 06:03 UTC NOAA

TAF TAF SVSA 260400Z 2606/2706 17005KT 9999 BKN020 TX33/19Z TN22/08Z
TEMPO 2606/2610 14007KT 9999 BKN020

Example: see airport list